Regional Weather Roundup
Issued by NWS

Home | Current Version | Previous Version | Graphics & Text | Print | Product List | Glossary On
Versions: 1 2 3 4 5 6 7 8 9 10 11 12 13 14 15 16 17 18 19 20 21 22 23 24 25 26 27 28 29 30 31 32 33 34 35 36 37 38 39 40 41 42 43 44 45 46 47 48 49 50
000
ASUS45 KSLC 191010
RWRUT

UTAH REGIONAL WEATHER ROUNDUP
NATIONAL WEATHER SERVICE SALT LAKE CITY UT
400 AM MDT SUN APR 19 2015

UTZ001>011-023>025-191100-

NORTHERN UTAH

CITY           SKY/WX    TMP DP  RH WIND       PRES   REMARKS
BRIGHAM CITY     N/A     50  29  44 W7        30.03F
HILL AFB       NOT AVBL
LOGAN          CLEAR     38  30  73 E5        30.07S WCI  34
OGDEN            N/A     45  33  63 VRB6      30.03S
PROVO AIRPORT    N/A     43  28  56 CALM      30.06R
SALT LAKE CITY   N/A     46  35  65 SE7       30.04R
VERNAL         CLOUDY    44  36  73 NE9       30.14R
WENDOVER         N/A     48  18  29 NE5       30.05S
HEBER CITY       N/A     32  28  86 CALM      30.10R THUNDER
WEST JORDAN    CLEAR     46  34  61 S3        30.05S

$$

UTZ012>022-026-027-191100-

SOUTHERN/CENTRAL UTAH

CITY           SKY/WX    TMP DP  RH WIND       PRES   REMARKS
BLANDING       CLOUDY    40  35  83 W8        30.13S WCI  34
BRYCE CANYON     N/A     27  19  72 W5        30.16S WCI  22
CEDAR CITY       N/A     38  22  52 E5        30.07S WCI  34
DELTA            N/A     41  25  53 CALM      30.06R
HANKSVILLE       N/A     45  39  81 N6        30.09S
MILFORD          N/A     39  22  50 W6        30.07R WCI  35
MOAB/CYNLANDS  CLEAR     44  39  82 W3        30.08R
PRICE            N/A     39  30  70 N7        30.10S WCI  34
ST GEORGE        N/A     59  19  21 NE3       29.98R

$$

REGIONAL REPORTS     COLORADO/ARIZONA

CITY           SKY/WX    TMP DP  RH WIND       PRES   REMARKS
CRAIG, CO      CLOUDY    36  32  85 SW3       30.13R
GRAND JUNCTION   N/A     34  34 100 E7        30.10R WCI  28
RIFLE          FOG       32  31  96 CALM      30.12S VSB 1/4
MONTROSE       MOCLDY    35  33  92 CALM      30.13R
CORTEZ         CLEAR     33  31  92 E7        30.07R WCI  27
PAGE, AZ         N/A     56  25  30 SE5       30.03R
GRAND CANYON   MOCLDY    30  15  53 CALM      30.11S
KINGMAN          N/A     47  16  29 SE6       29.96S
FLAGSTAFF        N/A     33  15  47 CALM      30.12S

$$

REGIONAL REPORTS    NEVADA/IDAHO/WYOMING

CITY           SKY/WX    TMP DP  RH WIND       PRES   REMARKS
LAS VEGAS, NV    N/A     69  15  12 SW9       29.85R
ELY              N/A     29  13  51 S12       30.15R WCI  19
ELKO             N/A     31  16  54 CALM      30.13S
POCATELLO, ID  CLEAR     37  27  67 NE8       30.13R WCI  31
BURLEY           N/A     38  29  70 SE3       30.11R
EVANSTON, WY   CLEAR     36  32  85 E15       30.13S WCI  27
ROCK SPRINGS   CLOUDY    33  29  85 E10       30.18S WCI  25
KEMMERER       CLOUDY    34  32  93 E5        30.17S WCI  30

$$



USA.gov is the U.S. government's official web portal to all federal, state and local government web resources and services.